TimeCST,TemperatureF,Dew PointF,Humidity,Sea Level PressureIn,VisibilityMPH,Wind Direction,Wind SpeedMPH,Gust SpeedMPH,PrecipitationIn,Events,Conditions,WindDirDegrees,DateUTC
12:15 AM,37.0,22.6,56,29.88,10.0,ESE,10.4,18.4,N/A,,Scattered Clouds,120,2013-03-04 06:15:00
12:55 AM,37.2,22.8,56,29.87,10.0,ESE,13.8,19.6,N/A,,Clear,120,2013-03-04 06:55:00
1:15 AM,37.2,23.4,57,29.86,10.0,ESE,15.0,19.6,N/A,,Clear,120,2013-03-04 07:15:00
1:35 AM,37.2,23.9,59,29.86,10.0,ESE,16.1,19.6,N/A,,Clear,120,2013-03-04 07:35:00
1:55 AM,37.4,24.6,60,29.85,10.0,ESE,12.7,18.4,N/A,,Clear,120,2013-03-04 07:55:00
2:15 AM,37.6,25.2,61,29.84,10.0,ESE,15.0,-,N/A,,Clear,120,2013-03-04 08:15:00
2:35 AM,37.4,25.5,62,29.82,10.0,ESE,16.1,20.7,N/A,,Clear,120,2013-03-04 08:35:00
3:15 AM,37.2,25.7,63,29.81,10.0,ESE,12.7,19.6,N/A,,Clear,110,2013-03-04 09:15:00
3:35 AM,36.9,25.5,64,29.81,10.0,East,11.5,20.7,N/A,,Clear,100,2013-03-04 09:35:00
3:55 AM,36.3,25.5,65,29.80,10.0,ESE,10.4,19.6,N/A,,Clear,110,2013-03-04 09:55:00
4:15 AM,36.0,25.3,65,29.80,10.0,ESE,10.4,-,N/A,,Clear,110,2013-03-04 10:15:00
4:35 AM,35.8,25.3,66,29.80,10.0,ESE,10.4,18.4,N/A,,Clear,110,2013-03-04 10:35:00
4:55 AM,35.6,25.2,66,29.80,10.0,ESE,12.7,17.3,N/A,,Clear,120,2013-03-04 10:55:00
5:15 AM,35.8,25.2,65,29.79,10.0,ESE,12.7,-,N/A,,Clear,110,2013-03-04 11:15:00
5:35 AM,35.6,25.2,66,29.79,10.0,ESE,12.7,-,N/A,,Clear,120,2013-03-04 11:35:00
5:55 AM,35.4,25.2,66,29.79,10.0,ESE,10.4,17.3,N/A,,Clear,110,2013-03-04 11:55:00
6:15 AM,34.9,25.3,68,29.79,10.0,ESE,10.4,-,N/A,,Clear,110,2013-03-04 12:15:00
6:35 AM,34.9,25.3,68,29.78,10.0,ESE,10.4,-,N/A,,Clear,120,2013-03-04 12:35:00
6:55 AM,35.1,25.5,68,29.78,10.0,ESE,10.4,-,N/A,,Clear,110,2013-03-04 12:55:00
7:15 AM,34.9,25.5,69,29.78,10.0,ESE,10.4,-,N/A,,Clear,110,2013-03-04 13:15:00
7:35 AM,35.4,25.9,68,29.77,10.0,ESE,13.8,-,N/A,,Clear,120,2013-03-04 13:35:00
7:55 AM,36.9,26.4,66,29.78,10.0,ESE,13.8,19.6,N/A,,Clear,110,2013-03-04 13:55:00
8:15 AM,37.8,26.8,65,29.78,10.0,SE,13.8,20.7,N/A,,Clear,130,2013-03-04 14:15:00
8:35 AM,38.7,27.1,63,29.78,10.0,SE,11.5,-,N/A,,Clear,130,2013-03-04 14:35:00
8:55 AM,39.4,27.5,62,29.77,10.0,ESE,11.5,21.9,N/A,,Clear,120,2013-03-04 14:55:00
9:15 AM,40.1,27.3,60,29.76,10.0,SE,15.0,21.9,N/A,,Clear,130,2013-03-04 15:15:00
9:35 AM,40.3,27.3,60,29.76,10.0,SE,15.0,19.6,N/A,,Clear,130,2013-03-04 15:35:00
9:55 AM,41.2,27.5,58,29.76,10.0,SE,11.5,-,N/A,,Clear,130,2013-03-04 15:55:00
10:15 AM,41.9,27.7,57,29.75,10.0,SE,11.5,-,N/A,,Clear,140,2013-03-04 16:15:00
10:35 AM,42.1,28.0,58,29.75,10.0,SE,10.4,-,N/A,,Clear,130,2013-03-04 16:35:00
10:55 AM,42.6,28.2,57,29.75,10.0,SE,9.2,-,N/A,,Clear,140,2013-03-04 16:55:00
11:15 AM,43.2,28.4,56,29.74,10.0,SE,10.4,-,N/A,,Clear,130,2013-03-04 17:15:00
11:35 AM,44.1,28.6,55,29.74,10.0,SE,11.5,-,N/A,,Clear,130,2013-03-04 17:35:00
11:55 AM,44.6,28.9,54,29.73,10.0,SE,10.4,-,N/A,,Clear,130,2013-03-04 17:55:00
12:15 PM,45.0,29.1,54,29.72,10.0,East,5.8,-,N/A,,Clear,100,2013-03-04 18:15:00
12:55 PM,45.3,29.3,54,29.71,10.0,East,5.8,-,N/A,,Clear,90,2013-03-04 18:55:00
1:15 PM,45.9,29.3,52,29.70,10.0,East,9.2,-,N/A,,Clear,100,2013-03-04 19:15:00
1:35 PM,46.6,29.5,51,29.69,10.0,East,6.9,-,N/A,,Clear,90,2013-03-04 19:35:00
1:55 PM,47.3,29.7,50,29.70,10.0,ENE,4.6,-,N/A,,Clear,70,2013-03-04 19:55:00
2:15 PM,49.8,29.5,46,29.70,10.0,ENE,4.6,-,N/A,,Clear,70,2013-03-04 20:15:00
2:35 PM,50.4,29.3,44,29.69,10.0,ENE,5.8,-,N/A,,Clear,60,2013-03-04 20:35:00
2:55 PM,50.5,29.3,44,29.70,10.0,ENE,3.5,-,N/A,,Clear,70,2013-03-04 20:55:00
3:35 PM,48.6,28.9,47,29.70,10.0,NNE,6.9,-,N/A,,Clear,30,2013-03-04 21:35:00
3:55 PM,47.3,29.3,50,29.71,10.0,NNE,6.9,-,N/A,,Clear,30,2013-03-04 21:55:00
4:15 PM,45.3,28.9,53,29.71,10.0,NE,8.1,-,N/A,,Clear,40,2013-03-04 22:15:00
4:35 PM,45.1,28.4,52,29.72,10.0,NE,5.8,-,N/A,,Clear,40,2013-03-04 22:35:00
4:55 PM,44.4,28.4,53,29.72,10.0,NE,5.8,-,N/A,,Clear,40,2013-03-04 22:55:00
5:15 PM,44.2,28.4,54,29.74,10.0,NE,6.9,-,N/A,,Clear,40,2013-03-04 23:15:00
5:35 PM,43.2,28.4,56,29.74,10.0,NE,8.1,-,N/A,,Clear,40,2013-03-04 23:35:00
5:55 PM,42.4,28.2,57,29.75,10.0,NE,9.2,-,N/A,,Scattered Clouds,40,2013-03-04 23:55:00
6:15 PM,41.7,28.0,58,29.76,10.0,NE,9.2,-,N/A,,Scattered Clouds,40,2013-03-05 00:15:00
6:35 PM,41.4,28.2,60,29.77,10.0,NNE,8.1,-,N/A,,Scattered Clouds,20,2013-03-05 00:35:00
6:55 PM,40.8,28.4,61,29.78,10.0,NE,4.6,-,N/A,,Clear,40,2013-03-05 00:55:00
7:15 PM,40.1,28.6,63,29.78,10.0,NNE,5.8,-,N/A,,Clear,20,2013-03-05 01:15:00
7:35 PM,39.4,28.9,66,29.78,10.0,North,8.1,-,N/A,,Scattered Clouds,10,2013-03-05 01:35:00
7:55 PM,39.2,28.9,67,29.78,10.0,NNE,8.1,-,N/A,,Clear,30,2013-03-05 01:55:00
8:35 PM,39.2,29.3,68,29.80,10.0,North,8.1,-,N/A,,Mostly Cloudy,10,2013-03-05 02:35:00
8:55 PM,38.5,29.3,70,29.80,10.0,North,6.9,-,N/A,,Scattered Clouds,10,2013-03-05 02:55:00
9:15 PM,38.8,29.5,69,29.81,10.0,North,5.8,-,N/A,,Mostly Cloudy,10,2013-03-05 03:15:00
9:35 PM,38.5,29.7,71,29.81,10.0,North,6.9,-,N/A,,Overcast,360,2013-03-05 03:35:00
9:55 PM,38.3,29.5,71,29.83,10.0,North,5.8,-,N/A,,Overcast,350,2013-03-05 03:55:00
10:15 PM,37.9,29.7,72,29.84,10.0,NNW,8.1,-,N/A,,Overcast,330,2013-03-05 04:15:00
10:35 PM,37.6,30.0,74,29.85,10.0,NNW,8.1,-,N/A,,Overcast,330,2013-03-05 04:35:00
10:55 PM,37.4,30.2,75,29.85,10.0,NNW,8.1,-,N/A,,Overcast,330,2013-03-05 04:55:00
11:15 PM,37.0,30.2,76,29.86,10.0,NNW,9.2,-,N/A,,Overcast,330,2013-03-05 05:15:00
11:35 PM,36.7,30.2,77,29.87,10.0,NW,10.4,-,N/A,,Overcast,320,2013-03-05 05:35:00
11:55 PM,36.5,30.2,78,29.87,10.0,NNW,9.2,-,N/A,,Overcast,330,2013-03-05 05:55:00